Buffalo, MN

4:24 PM CDT on July 22, 2017 (GMT -0500)
Buffalo

Weather History for KCFE - January, 2013

Change the Weather History Date:

Friday, January 11, 2013

  Actual Average (KMIC) Record (KMIC)
Temperature  
Mean Temperature 36 °F -  
Max Temperature 39 °F 22 °F 43 °F (1992)
Min Temperature 33 °F 7 °F -9 °F (2016)
Degree Days  
Heating Degree Days 29    
Moisture  
Dew Point 35 °F    
Average Humidity 99    
Maximum Humidity 99    
Minimum Humidity 97    
Precipitation  
Precipitation 0.00 in - - ()
Sea Level Pressure  
Sea Level Pressure 29.49 in    
Wind  
Wind Speed 7 mph (SSE)    
Max Wind Speed 12 mph    
Max Gust Speed 18 mph    
Visibility 2 miles    
Events Rain    
Averages and records for this station are not official NWS values.
T = Trace of Precipitation, MM = Missing Value Source: NWS Daily Summary

Daily Weather History Graph

Daily Weather History Graph

Search for Another Location

Airport or City:

Trip Planner

Search our weather history database for the weather conditions in past years. The results will help you decide how hot, cold, wet, or windy it might be!

Date:

Astronomy

Jan. 11, 2013 Rise Set
Actual Time 7:52 AM CST 4:54 PM CST
Civil Twilight 7:19 AM CST 5:28 PM CST
Nautical Twilight 6:42 AM CST 6:04 PM CST
Astronomical Twilight 6:07 AM CST 6:40 PM CST
Moon 7:23 AM CST (1/11) 5:16 PM CST (1/11)
Length of Visible Light 10h 08m
Length of Day
9h 02m
Waning Crescent, 0% of the Moon is Illuminated
Jan 11
Waning Crescent
Jan 11
New
Jan 18
First Quarter
Jan 26
Full
Feb 3
Last Quarter

Hourly Weather History & Observations

Time (CST) Temp. Windchill Dew Point Humidity Pressure Visibility Wind Dir Wind Speed Gust Speed Precip Events Conditions
12:15 AM 33.8 °F 26.4 °F 33.4 °F 99% 29.71 in 2.5 mi SSE 9.2 mph - N/A   Overcast
12:35 AM 33.8 °F 27.7 °F 33.3 °F 98% 29.69 in 2.0 mi SE 6.9 mph - N/A   Overcast
12:55 AM 33.8 °F 25.8 °F 33.3 °F 98% 29.69 in 1.8 mi SSE 10.4 mph - N/A   Light Drizzle
1:15 AM 33.8 °F 27.7 °F 33.4 °F 99% 29.67 in 2.0 mi SE 6.9 mph - N/A Rain Light Rain
1:35 AM 33.8 °F 28.6 °F 33.4 °F 99% 29.66 in 2.5 mi SE 5.8 mph - N/A   Overcast
1:55 AM 33.8 °F 26.4 °F 33.6 °F 99% 29.66 in 2.5 mi SSE 9.2 mph - N/A   Overcast
2:15 AM 34.0 °F 28.8 °F 33.6 °F 99% 29.65 in 2.5 mi SSE 5.8 mph - N/A   Overcast
2:35 AM 34.0 °F 28.8 °F 33.8 °F 99% 29.64 in 3.0 mi SE 5.8 mph - N/A   Overcast
2:55 AM 34.0 °F 28.0 °F 33.8 °F 99% 29.63 in 3.0 mi SSE 6.9 mph - N/A   Overcast
3:15 AM 34.2 °F 29.0 °F 33.8 °F 99% 29.62 in 3.0 mi SE 5.8 mph - N/A   Overcast
3:35 AM 34.3 °F 29.2 °F 34.0 °F 99% 29.62 in 3.0 mi SE 5.8 mph - N/A   Overcast
3:55 AM 34.2 °F 29.0 °F 33.8 °F 99% 29.61 in 3.0 mi SSE 5.8 mph - N/A   Overcast
4:14 AM 34.0 °F 29.8 °F 33.8 °F 99% 29.61 in 1.5 mi SSE 4.6 mph - N/A   Overcast
4:35 AM 34.0 °F 29.8 °F 33.8 °F 99% 29.60 in 1.2 mi SSE 4.6 mph - N/A   Light Drizzle
4:55 AM 34.0 °F 29.8 °F 33.8 °F 99% 29.59 in 1.5 mi SSE 4.6 mph - N/A   Overcast
5:14 AM 34.0 °F 29.8 °F 33.8 °F 99% 29.58 in 1.8 mi SSE 4.6 mph - N/A   Overcast
5:35 AM 34.0 °F 28.8 °F 33.8 °F 99% 29.57 in 1.8 mi SSE 5.8 mph - N/A   Overcast
6:14 AM 34.2 °F 29.0 °F 34.0 °F 99% 29.56 in 2.5 mi SSE 5.8 mph - N/A   Overcast
6:35 AM 34.2 °F 28.2 °F 34.0 °F 99% 29.55 in 3.0 mi SE 6.9 mph - N/A   Overcast
6:55 AM 34.2 °F 28.2 °F 34.0 °F 99% 29.54 in 4.0 mi SE 6.9 mph - N/A   Overcast
7:14 AM 34.2 °F 28.2 °F 34.0 °F 99% 29.54 in 4.0 mi SE 6.9 mph - N/A   Overcast
7:35 AM 34.3 °F 29.2 °F 34.0 °F 99% 29.54 in 4.0 mi SE 5.8 mph - N/A   Overcast
7:55 AM 34.3 °F 28.4 °F 34.0 °F 99% 29.54 in 3.0 mi SSE 6.9 mph - N/A   Overcast
8:15 AM 34.5 °F 29.4 °F 34.0 °F 98% 29.54 in 2.0 mi SSE 5.8 mph - N/A   Overcast
8:35 AM 34.7 °F 30.6 °F 34.2 °F 98% 29.53 in 2.0 mi SSE 4.6 mph - N/A   Overcast
8:55 AM 34.7 °F 28.8 °F 34.3 °F 99% 29.53 in 2.5 mi SSE 6.9 mph - N/A   Overcast
9:15 AM 34.9 °F 29.0 °F 34.7 °F 99% 29.52 in 2.5 mi SSE 6.9 mph - N/A   Overcast
9:35 AM 35.1 °F 31.0 °F 34.7 °F 99% 29.55 in 2.0 mi South 4.6 mph - N/A   Overcast
9:55 AM 35.2 °F 30.3 °F 34.9 °F 99% 29.54 in 2.0 mi South 5.8 mph - N/A   Overcast
10:14 AM 35.1 °F 32.2 °F 34.7 °F 99% 29.54 in 1.5 mi South 3.5 mph - N/A   Overcast
10:35 AM 35.4 °F 31.5 °F 34.9 °F 98% 29.53 in 1.5 mi SSE 4.6 mph - N/A   Overcast
10:55 AM 35.6 °F 31.7 °F 35.2 °F 99% 29.53 in 1.2 mi SSE 4.6 mph - N/A   Overcast
11:14 AM 35.6 °F 32.8 °F 35.2 °F 99% 29.52 in 1.2 mi SE 3.5 mph - N/A   Overcast
11:35 AM 35.8 °F 31.9 °F 35.6 °F 99% 29.50 in 1.2 mi SE 4.6 mph - N/A   Overcast
11:55 AM 36.1 °F 31.4 °F 35.8 °F 99% 29.49 in 1.8 mi SSE 5.8 mph - N/A   Overcast
12:14 PM 36.5 °F 32.7 °F 36.3 °F 99% 29.48 in 1.8 mi SSE 4.6 mph - N/A   Overcast
12:35 PM 36.5 °F 31.0 °F 36.3 °F 99% 29.48 in 1.8 mi SSE 6.9 mph - N/A   Overcast
12:55 PM 36.5 °F 31.0 °F 36.1 °F 99% 29.47 in 2.5 mi SSE 6.9 mph - N/A   Overcast
1:14 PM 36.5 °F 31.8 °F 36.1 °F 99% 29.47 in 2.5 mi SSE 5.8 mph - N/A   Overcast
2:14 PM 36.3 °F 32.5 °F 35.6 °F 97% 29.46 in 2.5 mi SSE 4.6 mph - N/A   Overcast
2:35 PM 36.3 °F 31.6 °F 35.8 °F 98% 29.45 in 3.0 mi SE 5.8 mph - N/A   Overcast
2:55 PM 36.5 °F 32.7 °F 35.8 °F 97% 29.44 in 2.0 mi SE 4.6 mph - N/A   Overcast
3:14 PM 36.0 °F 32.1 °F 35.6 °F 99% 29.44 in 1.5 mi SE 4.6 mph - N/A   Overcast
3:35 PM 36.0 °F 32.1 °F 35.6 °F 99% 29.43 in 1.5 mi SE 4.6 mph - N/A   Overcast
3:55 PM 36.0 °F 31.1 °F 35.6 °F 99% 29.43 in 1.2 mi ESE 5.8 mph - N/A   Overcast
4:14 PM 36.0 °F 33.3 °F 35.6 °F 99% 29.43 in 1.2 mi SE 3.5 mph - N/A   Overcast
4:35 PM 36.1 °F 32.3 °F 35.8 °F 99% 29.42 in 2.0 mi ESE 4.6 mph - N/A   Overcast
4:55 PM 36.0 °F 31.1 °F 35.6 °F 99% 29.42 in 2.5 mi ESE 5.8 mph - N/A   Overcast
5:14 PM 36.0 °F 31.1 °F 35.6 °F 99% 29.42 in 3.0 mi ESE 5.8 mph - N/A   Overcast
5:35 PM 36.1 °F 30.6 °F 35.8 °F 99% 29.40 in 3.0 mi ESE 6.9 mph - N/A   Light Drizzle
5:54 PM 36.7 °F 29.9 °F 36.3 °F 99% 29.38 in 3.0 mi ESE 9.2 mph - N/A   Overcast
6:15 PM 37.4 °F 32.1 °F 36.9 °F 98% 29.38 in 4.0 mi SE 6.9 mph - N/A   Overcast
6:35 PM 37.0 °F 33.3 °F 36.7 °F 99% 29.37 in 2.5 mi SE 4.6 mph - N/A   Overcast
6:54 PM 36.7 °F 32.9 °F 36.5 °F 99% 29.38 in 1.0 mi SE 4.6 mph - N/A   Overcast
7:15 PM 37.4 °F 32.8 °F 37.0 °F 99% 29.37 in 0.8 mi SSE 5.8 mph - N/A   Overcast
7:35 PM 38.3 °F 33.9 °F 37.9 °F 99% 29.37 in 1.8 mi SSE 5.8 mph - N/A   Overcast
7:54 PM 39.2 °F 35.0 °F 38.7 °F 98% 29.37 in 2.5 mi SSE 5.8 mph - N/A   Drizzle
8:15 PM 39.2 °F 35.0 °F 38.7 °F 98% 29.36 in 3.0 mi SSE 5.8 mph - N/A   Light Drizzle
8:35 PM 39.2 °F 33.6 °F 38.8 °F 99% 29.36 in 2.5 mi SSE 8.1 mph - N/A Rain Light Rain
8:54 PM 38.7 °F 32.9 °F 38.3 °F 99% 29.36 in 2.0 mi SSE 8.1 mph - N/A   Overcast
9:15 PM 39.2 °F 34.2 °F 38.7 °F 98% 29.35 in 3.0 mi South 6.9 mph - N/A   Overcast
9:35 PM 38.8 °F 33.2 °F 38.5 °F 99% 29.35 in 3.0 mi South 8.1 mph - N/A   Overcast
9:54 PM 39.2 °F 32.0 °F 38.7 °F 98% 29.35 in 4.0 mi South 11.5 mph 18.4 mph N/A   Overcast
10:15 PM 38.3 °F 31.4 °F 37.8 °F 98% 29.35 in 3.0 mi South 10.4 mph 17.3 mph N/A   Overcast
10:35 PM 37.8 °F 30.2 °F 37.4 °F 99% 29.35 in 4.0 mi SSW 11.5 mph 17.3 mph N/A   Overcast
10:54 PM 36.9 °F 29.1 °F 36.5 °F 99% 29.36 in 4.0 mi SSW 11.5 mph 16.1 mph N/A   Overcast
11:15 PM 35.8 °F 28.8 °F 35.6 °F 99% 29.37 in 4.0 mi SW 9.2 mph 16.1 mph N/A   Overcast
11:35 PM 35.2 °F 28.8 °F 34.9 °F 99% 29.37 in 4.0 mi SW 8.1 mph - N/A   Overcast
11:55 PM 34.7 °F 29.6 °F 34.3 °F 99% 29.37 in 5.0 mi SSW 5.8 mph - N/A   Overcast